Clinton, AR

10:16 PM CST on January 23, 2018 (GMT -0600)
Clinton

Weather History for KCCA - November, 2011

Change the Weather History Date:

Monday, November 14, 2011

  Actual Average (KBVX) Record (KBVX)
Temperature  
Mean Temperature 70 °F -  
Max Temperature 80 °F 60 °F 82 °F (1955)
Min Temperature 59 °F 38 °F 19 °F (1963)
Cooling Degree Days 5    
Growing Degree Days 20 (Base 50)    
Moisture  
Dew Point 63 °F    
Average Humidity 71    
Maximum Humidity 94    
Minimum Humidity 48    
Precipitation  
Precipitation 0.30 in - - ()
Sea Level Pressure  
Sea Level Pressure 29.76 in    
Wind  
Wind Speed 8 mph (SSW)    
Max Wind Speed 18 mph    
Max Gust Speed 28 mph    
Visibility 9 miles    
Events Rain , Thunderstorm    
Averages and records for this station are not official NWS values.
T = Trace of Precipitation, MM = Missing Value Source: NWS Daily Summary

Daily Weather History Graph

Daily Weather History Graph

Search for Another Location

Airport or City:

Trip Planner

Search our weather history database for the weather conditions in past years. The results will help you decide how hot, cold, wet, or windy it might be!

Date:

Astronomy

Nov. 14, 2011 Rise Set
Actual Time 6:44 AM CST 5:03 PM CST
Civil Twilight 6:17 AM CST 5:30 PM CST
Nautical Twilight 5:46 AM CST 6:01 PM CST
Astronomical Twilight 5:16 AM CST 6:31 PM CST
Moon 8:13 PM CST (11/14) 10:00 AM CST (11/14)
Length of Visible Light 11h 13m
Length of Day
10h 19m
Waning Gibbous, 86% of the Moon is Illuminated
Nov 14
Waning Gibbous
Nov 18
Last Quarter
Nov 25
New
Dec 2
First Quarter
Dec 10
Full

Hourly Weather History & Observations

Time (CST) Temp. Heat Index Dew Point Humidity Pressure Visibility Wind Dir Wind Speed Gust Speed Precip Events Conditions
12:15 AM 71.6 °F - 62.6 °F 73% 29.76 in 10.0 mi South 8.1 mph - N/A   Mostly Cloudy
12:35 AM 71.6 °F - 62.6 °F 73% 29.76 in 10.0 mi South 8.1 mph - N/A   Overcast
12:55 AM 71.6 °F - 62.6 °F 73% 29.76 in 10.0 mi South 5.8 mph - N/A   Overcast
1:15 AM 71.6 °F - 64.4 °F 78% 29.76 in 10.0 mi South 6.9 mph - N/A   Overcast
1:35 AM 71.6 °F - 64.4 °F 78% 29.76 in 10.0 mi South 8.1 mph - N/A   Overcast
1:55 AM 71.6 °F - 64.4 °F 78% 29.76 in 10.0 mi South 4.6 mph - N/A   Overcast
2:15 AM 69.8 °F - 64.4 °F 83% 29.76 in 10.0 mi South 4.6 mph - N/A   Overcast
2:35 AM 69.8 °F - 64.4 °F 83% 29.76 in 10.0 mi SSE 4.6 mph - N/A   Overcast
2:55 AM 69.8 °F - 64.4 °F 83% 29.75 in 10.0 mi SSE 3.5 mph - N/A   Overcast
3:15 AM 69.8 °F - 64.4 °F 83% 29.75 in 10.0 mi South 5.8 mph - N/A   Overcast
3:35 AM 71.6 °F - 64.4 °F 78% 29.75 in 10.0 mi South 6.9 mph - N/A   Overcast
3:55 AM 71.6 °F - 64.4 °F 78% 29.75 in 10.0 mi SSW 3.5 mph - N/A   Overcast
4:15 AM 71.6 °F - 64.4 °F 78% 29.76 in 10.0 mi SSW 6.9 mph - N/A   Overcast
4:35 AM 71.6 °F - 64.4 °F 78% 29.76 in 10.0 mi SSW 6.9 mph - N/A   Overcast
4:55 AM 71.6 °F - 64.4 °F 78% 29.76 in 9.0 mi SSW 4.6 mph - N/A   Overcast
5:15 AM 71.6 °F - 64.4 °F 78% 29.76 in 9.0 mi SSW 5.8 mph - N/A   Overcast
5:35 AM 71.6 °F - 64.4 °F 78% 29.76 in 10.0 mi SSW 3.5 mph - N/A   Overcast
6:15 AM 71.6 °F - 64.4 °F 78% 29.76 in 10.0 mi SW 8.1 mph - N/A   Overcast
6:35 AM 71.6 °F - 64.4 °F 78% 29.77 in 10.0 mi SW 4.6 mph - N/A   Overcast
6:55 AM 71.6 °F - 64.4 °F 78% 29.77 in 10.0 mi SSW 9.2 mph - N/A   Overcast
7:15 AM 71.6 °F - 64.4 °F 78% 29.78 in 9.0 mi SSW 6.9 mph - N/A   Overcast
7:35 AM 71.6 °F - 64.4 °F 78% 29.78 in 9.0 mi SSW 4.6 mph - N/A   Overcast
7:55 AM 71.6 °F - 64.4 °F 78% 29.78 in 8.0 mi SSW 6.9 mph - N/A   Overcast
8:15 AM 73.4 °F - 64.4 °F 73% 29.79 in 9.0 mi SSW 9.2 mph - N/A   Overcast
8:35 AM 73.4 °F - 64.4 °F 73% 29.79 in 8.0 mi SSW 11.5 mph 17.3 mph N/A   Overcast
8:55 AM 73.4 °F - 64.4 °F 73% 29.79 in 8.0 mi SSW 9.2 mph - N/A   Mostly Cloudy
9:15 AM 73.4 °F - 64.4 °F 73% 29.79 in 9.0 mi SSW 11.5 mph 16.1 mph N/A   Overcast
9:35 AM 75.2 °F - 64.4 °F 69% 29.79 in 9.0 mi SSW 15.0 mph 20.7 mph N/A   Mostly Cloudy
9:55 AM 75.2 °F - 64.4 °F 69% 29.79 in 9.0 mi SSW 11.5 mph 19.6 mph N/A   Mostly Cloudy
10:15 AM 77.0 °F - 64.4 °F 65% 29.79 in 9.0 mi SSW 15.0 mph 24.2 mph N/A   Scattered Clouds
10:35 AM 77.0 °F - 64.4 °F 65% 29.79 in 9.0 mi SSW 10.4 mph 19.6 mph N/A   Scattered Clouds
10:55 AM 78.8 °F - 64.4 °F 61% 29.79 in 9.0 mi SSW 18.4 mph 23.0 mph N/A   Partly Cloudy
11:15 AM 78.8 °F - 64.4 °F 61% 29.77 in 9.0 mi SSW 17.3 mph 26.5 mph N/A   Scattered Clouds
11:35 AM 80.6 °F 82.3 °F 64.4 °F 58% 29.77 in 9.0 mi SSW 16.1 mph 20.7 mph N/A   Clear
11:55 AM 80.6 °F 81.8 °F 62.6 °F 54% 29.76 in 10.0 mi SW 15.0 mph 27.6 mph N/A   Scattered Clouds
12:15 PM 80.6 °F 81.8 °F 62.6 °F 54% 29.75 in 10.0 mi SSW 13.8 mph 21.9 mph N/A   Mostly Cloudy
12:55 PM 80.6 °F 81.8 °F 62.6 °F 54% 29.74 in 10.0 mi SSW 15.0 mph 23.0 mph N/A   Partly Cloudy
1:15 PM 80.6 °F 81.8 °F 62.6 °F 54% 29.73 in 10.0 mi SSW 11.5 mph 20.7 mph N/A   Partly Cloudy
1:35 PM 80.6 °F 81.8 °F 62.6 °F 54% 29.73 in 10.0 mi SSW 15.0 mph 24.2 mph N/A   Partly Cloudy
1:55 PM 80.6 °F 81.5 °F 60.8 °F 51% 29.73 in 10.0 mi SSW 10.4 mph 19.6 mph N/A   Partly Cloudy
2:35 PM 80.6 °F 81.5 °F 60.8 °F 51% 29.73 in 10.0 mi SW 12.7 mph - N/A   Partly Cloudy
2:55 PM 80.6 °F 81.5 °F 60.8 °F 51% 29.73 in 10.0 mi SW 11.5 mph 20.7 mph N/A   Partly Cloudy
3:15 PM 78.8 °F - 60.8 °F 54% 29.73 in 10.0 mi SW 12.7 mph 18.4 mph N/A   Scattered Clouds
3:35 PM 80.6 °F 81.1 °F 59.0 °F 48% 29.73 in 10.0 mi SW 12.7 mph 19.6 mph N/A   Partly Cloudy
3:55 PM 78.8 °F - 60.8 °F 54% 29.73 in 10.0 mi SW 6.9 mph - N/A   Clear
4:15 PM 78.8 °F - 60.8 °F 54% 29.73 in 10.0 mi South 6.9 mph - N/A   Partly Cloudy
4:35 PM 78.8 °F - 60.8 °F 54% 29.74 in 10.0 mi SSW 5.8 mph - N/A   Scattered Clouds
4:55 PM 77.0 °F - 60.8 °F 57% 29.74 in 10.0 mi SSW 5.8 mph - N/A   Partly Cloudy
5:15 PM 75.2 °F - 59.0 °F 57% 29.75 in 10.0 mi NNW 4.6 mph - N/A   Mostly Cloudy
5:35 PM 71.6 °F - 60.8 °F 69% 29.76 in 10.0 mi NW 3.5 mph - N/A   Overcast
5:55 PM 71.6 °F - 62.6 °F 73% 29.78 in 10.0 mi West 9.2 mph - N/A Rain Light Rain
6:15 PM 66.2 °F - 64.4 °F 94% 29.78 in 9.0 mi NNE 3.5 mph - 0.01 in   Overcast
6:35 PM 66.2 °F - 64.4 °F 94% 29.77 in 7.0 mi Calm Calm - 0.01 in   Mostly Cloudy
6:55 PM 66.2 °F - 64.4 °F 94% 29.78 in 6.0 mi Calm Calm - 0.01 in   Mostly Cloudy
7:15 PM 66.2 °F - 64.4 °F 94% 29.79 in 6.0 mi Calm Calm - N/A   Mostly Cloudy
7:35 PM 66.2 °F - 64.4 °F 94% 29.79 in 10.0 mi NW 3.5 mph - N/A   Mostly Cloudy
7:55 PM 66.2 °F - 62.6 °F 88% 29.80 in 4.0 mi NW 9.2 mph - 0.06 in Rain Heavy Rain
8:15 PM 60.8 °F - 55.4 °F 82% 29.80 in 5.0 mi NNW 9.2 mph 16.1 mph 0.03 in Thunderstorm Haze
8:35 PM 59.0 °F - 53.6 °F 82% 29.82 in 1.8 mi North 6.9 mph - 0.23 in Rain , Thunderstorm Thunderstorms and Rain
8:55 PM 57.2 °F - 53.6 °F 88% 29.84 in 1.2 mi Calm Calm - 0.55 in Rain , Thunderstorm Heavy Rain
9:15 PM 55.4 °F - 53.6 °F 94% 29.86 in 4.0 mi Calm Calm - 0.04 in Rain , Thunderstorm Rain
9:35 PM 55.4 °F - 55.4 °F 100% 29.85 in 1.8 mi Calm Calm - 0.18 in Rain , Thunderstorm Heavy Rain
9:55 PM 55.4 °F - 55.4 °F 100% 29.86 in 2.0 mi Calm Calm - 0.34 in Rain Rain
10:15 PM 55.4 °F - 55.4 °F 100% 29.85 in 9.0 mi Calm Calm - 0.01 in Thunderstorm Overcast
10:35 PM 55.4 °F - 55.4 °F 100% 29.86 in 10.0 mi Calm Calm - 0.01 in Thunderstorm Overcast
10:55 PM 55.4 °F - 55.4 °F 100% 29.86 in 10.0 mi Calm Calm - 0.01 in Thunderstorm Thunderstorm
11:15 PM 55.4 °F - 55.4 °F 100% 29.88 in 4.0 mi Calm Calm - 0.06 in Rain Heavy Rain
11:35 PM 55.4 °F - 55.4 °F 100% 29.86 in 9.0 mi Calm Calm - 0.08 in Thunderstorm Overcast
11:55 PM 55.4 °F - 55.4 °F 100% 29.85 in 10.0 mi Calm Calm - 0.08 in Thunderstorm Overcast